0 HST 1 20580U 90037B 26237.49495818 .00006173 00000-0 18990-3 0 9999 2 20580 28.4736 326.6254 0001873 180.7493 179.3100 15.31454659799207 0 ISS (ZARYA) 1 25544U 98067A 26237.53157715 .00007217 00000-0 13603-3 0 9997 2 25544 51.6331 316.8722 0007739 83.0953 277.0916 15.49622505582505 0 CXO 1 25867U 99040B 26238.13521419 .00000985 00000-0 00000-0 0 9999 2 25867 57.1028 114.8710 7727577 309.5585 0.6618 0.37795883 17584